Regional Weather Roundup
Issued by NWS Northern Indiana

Home | Current Version | Previous Version | Text Only | Print | Product List | Glossary Off
Versions: 1 2 3 4 5 6 7 8 9 10 11 12 13 14 15 16 17 18 19 20 21 22 23 24 25 26 27 28 29 30 31 32 33 34 35 36 37 38 39 40 41 42 43 44 45 46 47 48 49 50

000
ASUS43 KIWX 011110
RWRIWX

KIWX WEATHER ROUNDUP
NATIONAL WEATHER SERVICE NORTHERN INDIANA
700 AM EDT MON SEP 01 2014

NOTE: "FAIR" INDICATES FEW OR NO CLOUDS BELOW 12,000 FEET WITH NO
SIGNIFICANT WEATHER AND/OR OBSTRUCTIONS TO VISIBILITY.

* THESE STATIONS ARE NOT UNDER NWS QUALITY CONTROL. THEY ALSO MAY NOT
  REPORT WEATHER SUCH AS PRECIPITATION OR FOG.

INZ001>027-011200-
NORTHERN INDIANA

CITY           SKY/WX    TMP DP  RH WIND       PRES   REMARKS
GARY*          MOCLDY    73  72  94 SE10      29.82F
VALPARAISO     CLOUDY    71  70  96 S9        29.84F
MICHIGAN CITY* CLOUDY    72  70  94 S9        29.83F
LAPORTE*       CLOUDY    70  70 100 S6        29.86F FOG
KNOX*          MOCLDY    71  68  91 S9        29.86S
SOUTH BEND     PTCLDY    72  69  90 S9        29.87F
ELKHART*       CLOUDY    72  70  94 S6        29.89  FOG
GOSHEN         PTCLDY    72  69  90 S6        29.89S
MONTICELLO*    MOCLDY    71  71  97 S10       29.88S
LOGANSPORT*    MOCLDY    70  68  94 S6        29.91S
ROCHESTER*     PTCLDY    73  72  94 S8        29.90S
WARSAW*        MOCLDY    70  70 100 S3        29.90S FOG
ANGOLA*        CLOUDY    70  63  78 S5        29.92S
FORT WAYNE     MOCLDY    70  69  97 S8        29.93F
HUNTINGTON*    MOCLDY    70  70  98 S7        29.92S
PERU/GRISSOM   PTCLDY    71  71 100 S12       29.91S
MARION*        CLOUDY    71  70  97 S8        29.94S FOG

$$
INZ028>050-011200-
CENTRAL INDIANA

CITY           SKY/WX    TMP DP  RH WIND       PRES   REMARKS
LAFAYETTE      MOCLDY    71  70  96 S6        29.89S
KOKOMO*        MOCLDY    72  68  88 S8        29.92S
MUNCIE*        CLOUDY    73  69  87 S7        29.95F
INDIANAPOLIS   MOCLDY    72  70  93 S13       29.94R

$$
MIZ043>046-050>051-056>058-064>065-071>073-077>080-011200-
SOUTHWEST LOWER MICHIGAN

CITY           SKY/WX    TMP DP  RH WIND       PRES   REMARKS
BATTLE CREEK   PTCLDY    70  68  93 S10       29.89S FOG
BENTON HARBOR  PTCLDY    70  69  97 SE8       29.83F
COLDWATER*     PTCLDY    72  70  95 S3        29.91S FOG
HILLSDALE*     CLOUDY    71  71 100 SW6       29.93R FOG
HOLLAND        CLEAR     71  69  93 S8        29.84F
GRAND RAPIDS   PTCLDY    70  70 100 S8        29.86S FOG
KALAMAZOO      CLOUDY    71  69  93 S12       29.88F FOG
STURGIS*         N/A     70  70 100 S6        29.90S FOG
THREE RIVERS*  MOCLDY    70  70  98 S7        29.89F FOG

$$
OHZ001>008-015>018-024>025-011200-
NORTHWEST OHIO

CITY           SKY/WX    TMP DP  RH WIND       PRES   REMARKS
WAUSEON*       MOCLDY    68  68 100 S6        29.94R FOG
DEFIANCE       MOCLDY    71  68  90 S6        29.93S
FINDLAY        CLEAR     69  67  93 S7        29.95S
TOLEDO EXPRESS CLEAR     69  68  96 S6        29.93S
TOLEDO METCALF CLEAR     69  66  90 S6        29.94F
LIMA           CLOUDY    70  68  93 S10       29.97S FOG

$$
&&



USA.gov is the U.S. government's official web portal to all federal, state and local government web resources and services.